STARLINK-31685, 59578

Orbit data source: Space-Track

STARLINK-31685, 59578 is a payload satellite owned by SpaceX/Seattle (US) in LEO that was launched on Tue, 23 Apr 2024 UTC via an FALCON 9 launch vehicle from the Air Force Eastern Test Range (AFETR). Payload-class satellites include a variety of spacecraft equipped with specific instruments for various scientific and technological missions. These include communications satellites like Starlink; space stations such as the ISS; scientific satellites like the Hubble; Earth observation satellites from companies like Planet Labs, Umbra, and HawkEye 360; GPS; miniature CubeSats for education and research; and military/defense satellites.

Loading next visibility...
Identifier
59578, 2024-076Q
Orbit
LEO
Country
Flag of USUS
Related business
Manufacturer
SpaceX/Seattle
Mission
Operational spacecraft
Bus & Motor
STARLINK V2M, Unknown motor
Mass
730 kg wet, ~700 kg dry
Launch date (UTC)
2024-04-23 (1 year ago)
Launch vehicle
FALCON 9
Launch site
Air Force Eastern Test Range (AFETR)
Object type
Payload
Rocket body
Debris
Shape & HBR
Unknown
Radar Cross Section
Large (>1 m²)

Expand to show TLE details & history
Last TLE update: 13 hours ago

TLE from 13 hours ago
0 STARLINK-31685
1 59578U 24076Q   25258.75996836  .00001111  00000-0  49882-4 0  9997
2 59578  43.0014 276.5404 0000998 281.4726  78.6014 15.27578749 79751
Epoch: 2025-09-15T18:14Z
TLE epoch observation values (Epoch: 2025-09-15T18:14:21.266Z)
Latitude
0.00002°
Longitude
7.99181°
Altitude
482.693 km
Speed
7.626 km/s
True Right ascension
18h 26m 09s
True Declination
0° 00' 00"
Sunlit
Object was in daylight at epoch
Visualization orbit readout
Latitude
Unknown
Longitude
Unknown
Altitude
Unknown
Speed
Unknown
Apparent Right ascension
Unknown
Apparent Declination
Unknown
Sunlit
N/A
Visualization observer readout
Local Sidereal Time
23:40:46
Azimuth
Unknown
Elevation
Unknown
Doppler factor
Unknown
Orbital elements
Apogee altitude
485.683 km
Perigee altitude
484.313 km
Semi-major axis
6,863.135 km
Eccentricity
0.0001
Inclination
43.0014°
RAAN
276.5404°
Arg. of periapsis
281.4726°
True anomaly
78.61261°
Mean anomaly
78.6014°
Eccentric anomaly
78.60701°
Mean motion
3.81733 °/min
Orbital period
94.31 mins
BSTAR
0.000049882
Loading maneuver chart data...
Computing Atmospheric mass density...
Loading historical data...
Loading historical data...
Loading historical data...
Loading historical data...
Loading historical data...
Loading historical data...
Loading historical data...

Documentation

Showing up to 5 results
|